Wind_Speed
33 33 32 31 31 32 32 33 33 34 35 35 36 37 37 37 37 37 37 38 38 39 39 39 39 40 40 41 41 42 42 42 41 40 40 40 39 38 38 39 38 37 37
32 32 32 31 31 32 32 32 33 34 34 35 35 35 35 35 35 36 37 38 39 39 38 39 39 40 41 41 41 42 42 43 42 42 41 40 39 39 40 40 40 39 38
30 30 31 31 32 32 32 33 33 33 34 35 34 34 35 34 35 36 35 37 38 38 38 39 39 40 41 41 41 42 43 43 43 43 43 42 42 41 40 41 42 41 41
29 30 30 31 31 32 33 32 31 32 33 34 34 33 33 34 35 35 36 36 36 37 38 39 40 40 40 41 41 41 42 43 43 43 43 44 43 43 42 42 43 43 43
30 31 30 30 31 31 32 32 31 32 32 33 33 34 32 33 33 34 36 36 36 37 38 39 39 40 41 41 41 41 41 43 43 43 43 44 43 44 45 44 45 45 45
30 31 30 30 31 31 31 32 31 31 31 32 32 33 32 32 32 34 35 36 36 36 37 38 40 41 41 41 41 41 42 42 42 42 43 44 44 45 46 47 47 47 47
29 29 30 30 31 31 32 32 31 31 31 32 32 32 32 31 31 33 34 35 34 34 35 38 40 40 41 42 41 42 43 42 42 42 43 44 44 46 47 48 49 50 50
29 29 29 30 30 30 31 32 31 30 31 32 32 32 32 32 31 32 33 34 35 33 34 36 37 38 39 41 41 41 42 43 44 44 45 45 45 46 48 49 49 51 51
29 29 29 30 29 29 30 31 30 30 30 31 31 31 31 31 31 31 31 32 34 34 34 33 35 38 39 40 41 42 42 43 43 44 44 45 46 47 48 49 50 51 51
28 28 28 28 28 29 29 29 28 28 28 29 29 29 30 30 30 30 30 30 32 34 35 35 35 37 38 39 40 42 42 42 43 44 45 46 46 47 48 49 50 51 53
28 28 28 28 28 28 28 28 28 28 29 29 29 29 29 29 30 30 30 30 31 32 33 34 34 36 39 40 41 42 42 43 43 44 45 46 48 48 49 49 50 50 52
28 28 29 29 29 28 28 28 28 29 29 29 29 30 30 29 30 30 31 31 31 32 33 34 34 35 37 40 41 42 43 43 43 43 44 45 47 48 49 49 49 50 51
29 29 29 29 29 29 29 29 29 29 29 29 30 30 29 29 30 31 32 32 32 33 33 34 35 35 36 38 40 41 42 42 43 44 44 44 45 46 48 49 50 50 51
30 29 29 29 29 29 29 29 29 29 29 30 30 30 30 30 30 31 31 32 33 33 34 34 35 36 37 38 40 41 42 41 42 42 43 44 45 46 48 48 49 50 50
29 29 28 28 28 28 28 28 28 29 29 30 31 32 31 31 31 32 32 32 33 34 34 35 36 37 37 38 39 39 40 41 43 42 42 43 44 45 47 48 48 48 49
30 29 28 28 28 28 28 28 28 28 29 30 30 30 32 32 32 32 33 33 34 35 35 36 37 38 38 38 39 40 41 42 42 42 42 43 44 45 47 47 47 47 48
30 30 29 29 29 29 29 29 28 29 29 29 30 30 31 32 33 33 34 34 35 35 36 36 36 37 38 38 39 40 40 41 42 42 42 43 45 46 46 45 46 46 46
30 30 30 29 29 29 29 29 29 29 29 29 30 31 32 32 33 34 35 35 35 36 36 37 37 37 38 39 39 40 40 42 42 42 42 43 44 44 44 45 45 44 44
30 31 30 30 30 30 30 30 30 30 30 30 31 31 32 32 33 34 34 35 36 37 38 38 38 38 39 39 40 40 41 41 42 43 43 43 43 43 44 45 44 43 43
32 31 31 31 31 31 31 31 31 31 31 31 31 31 32 33 34 34 35 36 37 38 38 37 37 38 39 38 39 40 40 40 41 41 41 41 42 42 43 43 42 41 41
33 32 32 32 32 32 31 31 31 31 31 32 32 32 32 33 34 35 35 36 37 37 37 37 37 38 38 38 39 39 39 40 40 40 40 40 40 41 41 41 40 40 40
34 34 33 33 33 33 32 32 32 32 32 32 32 33 33 34 34 35 35 35 36 36 37 37 36 37 37 38 38 39 38 38 39 39 39 39 39 39 39 39 39 39 39
33 33 33 33 33 33 33 33 32 32 33 33 33 33 34 34 34 34 35 35 35 35 36 36 36 36 37 37 38 37 37 37 38 39 39 39 38 38 38 38 38 39 39
33 33 33 33 32 32 32 33 33 33 33 34 34 34 34 34 34 34 34 34 34 35 36 36 36 36 36 36 36 36 37 37 38 39 38 37 37 38 38 38 38 38 38
32 33 34 34 34 33 33 33 33 33 33 34 34 34 34 34 34 34 35 35 35 35 36 36 36 36 36 36 37 38 38 38 39 38 37 37 37 38 38 38 38 38 38
31 32 32 33 33 33 33 33 33 33 33 34 34 34 34 34 34 34 34 35 36 36 36 36 36 36 37 37 38 38 38 38 38 38 37 37 37 37 38 38 38 38 38
Wind_Direction
254 255 256 257 257 258 258 256 255 256 258 260 260 258 258 256 254 254 254 253 252 251 251 250 249 249 249 249 251 252 253 253 254 255 255 256 257 259 261 263 265 265 266
255 256 257 257 259 260 259 259 260 259 261 260 261 260 261 259 256 255 253 253 252 251 250 250 250 250 249 249 250 252 252 252 253 254 255 256 258 261 264 264 265 265 266
256 257 259 260 261 261 261 261 261 259 261 261 261 259 260 259 257 255 255 254 252 251 251 251 251 250 249 250 251 252 252 252 253 254 256 257 258 261 264 264 265 265 266
255 255 258 262 264 262 259 260 262 260 261 261 260 258 260 258 257 256 255 255 254 253 253 253 252 251 249 250 251 251 252 252 252 255 257 258 260 261 263 264 265 266 266
257 256 259 263 263 263 261 260 261 262 262 262 259 258 260 258 256 256 256 255 254 255 255 254 252 250 249 249 249 250 251 251 252 254 256 259 261 263 264 264 264 265 267
259 259 260 261 263 262 262 261 261 261 261 261 260 259 260 259 258 259 259 257 256 256 255 254 251 248 248 248 249 250 251 252 253 255 258 260 262 264 265 266 265 265 267
261 261 260 261 262 262 261 261 261 261 261 260 259 258 259 260 261 261 262 259 258 259 256 254 250 249 249 247 250 251 253 253 255 257 260 261 264 265 266 267 267 267 268
263 263 263 262 260 261 261 261 261 262 261 260 259 260 259 260 262 264 264 261 258 259 257 252 250 250 249 249 251 253 254 255 257 257 259 261 264 266 267 268 269 269 270
262 263 263 261 261 261 262 261 261 262 262 262 262 263 262 263 263 265 264 261 257 256 255 254 252 250 250 251 253 255 256 258 259 258 259 261 264 266 269 268 269 271 272
261 263 262 261 262 263 261 261 261 261 262 265 265 265 263 262 262 263 264 260 258 257 256 256 254 252 251 253 257 256 257 259 260 260 261 263 265 268 270 270 271 272 274
259 260 261 260 260 261 261 262 262 262 262 264 264 264 264 263 262 262 263 261 260 260 260 259 256 253 253 255 258 258 261 262 262 262 264 266 267 270 271 272 273 274 276
257 258 258 258 258 258 258 259 260 261 261 263 264 265 265 265 263 263 263 262 262 262 261 261 259 259 257 257 259 260 263 264 264 264 266 268 270 271 272 274 275 275 276
257 258 259 258 259 258 256 256 257 258 259 260 261 263 264 264 264 263 263 262 262 262 262 262 262 263 262 262 261 264 265 266 266 267 269 270 271 272 274 275 276 277 278
257 258 258 258 258 257 256 256 256 257 258 259 260 261 263 262 262 263 262 261 262 263 264 262 262 263 264 264 263 265 265 267 268 270 272 272 273 273 275 276 277 278 279
256 257 257 257 258 257 256 256 258 257 258 260 262 262 262 263 263 262 262 261 262 264 264 263 263 264 265 265 266 267 267 269 270 271 273 274 274 274 275 276 278 279 279
255 256 257 257 258 257 256 257 258 258 260 261 262 264 264 264 264 263 262 262 263 264 264 264 264 265 265 265 266 268 268 269 270 270 272 275 275 275 277 278 279 280 280
255 256 258 258 257 256 255 256 257 259 261 262 263 263 264 264 264 264 263 263 263 264 265 267 266 267 268 268 269 270 270 271 271 272 273 276 277 277 279 278 280 280 281
255 255 256 257 257 257 257 258 259 261 262 263 264 263 263 264 265 265 266 265 265 265 266 268 269 270 271 272 273 273 272 272 273 273 275 277 279 278 279 279 281 280 279
255 255 256 256 257 257 258 259 260 262 263 264 264 264 264 265 266 267 267 267 267 268 268 269 270 272 273 274 273 273 274 274 274 275 277 278 279 278 279 280 280 279 278
253 255 256 256 257 258 259 260 261 263 264 264 264 264 266 266 267 269 268 269 269 270 269 270 271 272 273 274 275 275 275 275 276 277 278 279 280 279 279 280 280 279 278
252 255 256 256 257 259 260 261 262 263 263 264 264 264 266 267 269 269 270 270 270 270 270 270 271 272 273 275 275 275 276 277 278 280 280 281 281 280 280 280 280 279 278
254 255 257 257 258 259 260 261 262 263 264 264 264 266 267 268 270 271 271 271 271 271 271 271 272 274 275 275 275 275 276 277 278 280 281 282 282 281 281 281 281 280 281
256 257 257 258 258 259 259 260 261 263 263 264 266 267 269 270 271 270 271 271 272 272 272 272 274 275 275 275 275 275 277 278 278 279 281 281 281 281 283 284 283 282 283
257 258 257 258 259 260 261 260 261 263 264 265 266 268 269 270 270 270 271 271 272 273 273 274 275 276 275 275 275 276 278 278 278 278 279 279 280 282 283 284 284 284 285
259 259 260 260 260 261 262 262 262 264 265 265 266 268 269 269 269 269 270 271 272 273 274 275 275 275 275 275 277 277 278 279 279 278 277 278 279 281 283 283 283 283 284
259 261 262 262 262 262 263 264 264 265 266 267 267 267 268 269 270 270 271 273 273 274 275 275 274 274 275 276 276 277 279 279 278 278 277 279 280 281 282 282 282 283 284
Height
5717 5718 5719 5721 5722 5723 5723 5724 5725 5726 5726 5727 5728 5729 5730 5730 5732 5733 5734 5735 5737 5739 5741 5743 5745 5748 5750 5753 5756 5759 5761 5764 5766 5768 5770 5771 5773 5774 5775 5776 5776 5777 5776
5709 5710 5711 5713 5714 5714 5715 5716 5716 5717 5717 5718 5719 5719 5720 5721 5722 5723 5724 5725 5726 5728 5731 5733 5735 5738 5741 5743 5746 5749 5752 5754 5756 5759 5760 5762 5764 5765 5766 5766 5767 5767 5767
5702 5703 5704 5705 5705 5706 5706 5707 5707 5708 5708 5709 5709 5710 5710 5711 5712 5713 5714 5715 5717 5718 5720 5723 5725 5728 5730 5733 5736 5738 5741 5744 5746 5749 5751 5752 5754 5756 5757 5757 5757 5757 5757
5694 5695 5696 5696 5697 5697 5697 5698 5698 5699 5700 5700 5700 5701 5702 5703 5703 5704 5705 5706 5708 5709 5711 5712 5715 5717 5720 5723 5725 5728 5730 5733 5736 5738 5740 5742 5744 5746 5747 5748 5748 5748 5747
5686 5687 5687 5688 5688 5688 5689 5689 5690 5690 5691 5692 5692 5693 5693 5694 5694 5695 5696 5697 5698 5700 5701 5703 5705 5707 5710 5712 5715 5717 5719 5722 5725 5727 5729 5731 5732 5734 5735 5737 5738 5737 5737
5677 5678 5679 5679 5679 5680 5680 5681 5681 5682 5683 5683 5684 5684 5685 5685 5685 5686 5687 5688 5689 5690 5691 5692 5694 5697 5699 5702 5704 5707 5709 5711 5714 5716 5718 5720 5721 5722 5723 5724 5725 5726 5726
5669 5669 5670 5671 5671 5672 5672 5673 5673 5674 5675 5675 5675 5676 5676 5676 5677 5678 5678 5679 5680 5681 5681 5682 5684 5686 5689 5691 5694 5697 5699 5701 5703 5705 5707 5708 5709 5710 5711 5711 5712 5713 5714
5661 5661 5662 5662 5663 5663 5663 5664 5665 5666 5666 5667 5667 5667 5667 5668 5668 5669 5670 5670 5671 5671 5672 5673 5675 5677 5679 5682 5684 5686 5689 5690 5692 5694 5696 5697 5698 5698 5698 5699 5699 5699 5701
5652 5653 5654 5654 5655 5655 5656 5656 5657 5657 5658 5658 5658 5658 5659 5659 5660 5660 5661 5661 5662 5663 5663 5664 5666 5668 5670 5672 5675 5677 5678 5680 5682 5684 5685 5686 5686 5686 5686 5686 5686 5686 5686
5644 5645 5645 5646 5646 5647 5647 5648 5649 5649 5650 5650 5651 5651 5651 5651 5651 5652 5653 5653 5654 5655 5655 5656 5657 5659 5661 5663 5665 5667 5668 5670 5671 5673 5673 5674 5674 5674 5674 5673 5673 5671 5671
5636 5637 5637 5637 5638 5639 5639 5640 5641 5641 5642 5642 5642 5642 5642 5643 5643 5644 5644 5645 5645 5646 5647 5648 5649 5650 5652 5654 5655 5657 5658 5659 5660 5661 5662 5662 5662 5662 5661 5660 5659 5658 5656
5627 5628 5629 5629 5630 5630 5631 5632 5633 5633 5634 5634 5634 5634 5634 5634 5635 5635 5636 5636 5637 5637 5638 5639 5640 5641 5643 5644 5645 5646 5647 5649 5649 5650 5650 5650 5649 5649 5648 5647 5646 5644 5642
5618 5619 5620 5621 5621 5622 5623 5624 5624 5625 5625 5626 5626 5626 5626 5626 5626 5627 5627 5628 5629 5629 5630 5631 5631 5632 5633 5634 5635 5636 5637 5637 5638 5638 5638 5637 5637 5636 5635 5634 5632 5630 5627
5609 5610 5611 5612 5613 5613 5614 5615 5615 5616 5617 5617 5617 5617 5618 5618 5618 5618 5619 5619 5620 5620 5621 5622 5622 5623 5623 5624 5625 5625 5626 5626 5626 5626 5626 5625 5624 5623 5622 5620 5618 5616 5613
5600 5601 5602 5603 5604 5604 5605 5606 5606 5607 5608 5608 5609 5609 5609 5610 5610 5610 5610 5611 5611 5612 5612 5612 5613 5614 5614 5614 5614 5614 5615 5615 5615 5614 5613 5612 5611 5610 5608 5606 5604 5601 5599
5592 5593 5594 5594 5595 5596 5596 5597 5598 5598 5599 5600 5600 5600 5600 5601 5601 5601 5601 5602 5602 5602 5602 5603 5603 5604 5603 5603 5603 5603 5603 5603 5603 5602 5602 5600 5599 5597 5595 5592 5590 5587 5585
5583 5585 5585 5586 5587 5588 5588 5589 5589 5590 5590 5591 5591 5591 5592 5592 5592 5592 5592 5592 5592 5592 5593 5593 5593 5593 5593 5592 5592 5592 5591 5591 5591 5590 5589 5588 5586 5583 5581 5579 5577 5574 5571
5574 5575 5577 5578 5578 5579 5580 5581 5581 5582 5582 5582 5582 5583 5583 5583 5583 5583 5583 5583 5583 5583 5583 5583 5583 5582 5582 5582 5581 5580 5580 5579 5578 5577 5576 5575 5573 5570 5568 5566 5564 5561 5559
5565 5566 5568 5569 5570 5571 5571 5572 5573 5573 5573 5574 5574 5574 5574 5574 5574 5573 5573 5573 5573 5573 5573 5573 5572 5572 5571 5571 5570 5569 5568 5568 5567 5565 5563 5562 5560 5558 5555 5553 5551 5549 5547
5556 5557 5559 5560 5561 5562 5563 5563 5564 5564 5564 5564 5564 5564 5564 5564 5564 5564 5563 5563 5563 5562 5562 5562 5562 5561 5561 5560 5559 5558 5557 5557 5556 5554 5552 5550 5548 5546 5543 5540 5538 5537 5535
5546 5548 5550 5551 5552 5553 5554 5554 5555 5555 5555 5555 5555 5555 5555 5555 5554 5554 5553 5552 5552 5552 5552 5552 5552 5551 5550 5549 5548 5547 5545 5545 5544 5542 5540 5538 5536 5534 5532 5529 5527 5525 5523
5537 5538 5540 5541 5542 5543 5544 5545 5545 5546 5546 5546 5546 5546 5545 5545 5544 5544 5543 5543 5542 5542 5542 5541 5541 5540 5539 5538 5537 5536 5534 5533 5532 5531 5529 5528 5525 5523 5521 5519 5516 5514 5512
5527 5528 5530 5531 5532 5533 5534 5535 5536 5536 5536 5536 5536 5536 5536 5535 5535 5534 5533 5533 5532 5532 5531 5531 5531 5530 5529 5528 5526 5525 5524 5522 5521 5520 5518 5517 5515 5513 5510 5508 5506 5504 5502
5517 5519 5520 5521 5523 5523 5524 5525 5526 5526 5526 5527 5526 5526 5526 5525 5525 5524 5524 5523 5522 5521 5521 5520 5520 5519 5518 5517 5516 5514 5513 5511 5510 5508 5507 5505 5504 5502 5500 5498 5495 5493 5491
5508 5509 5510 5511 5512 5513 5514 5515 5516 5516 5516 5516 5516 5516 5516 5515 5515 5514 5514 5513 5512 5511 5510 5510 5509 5508 5508 5506 5505 5504 5502 5501 5499 5498 5496 5495 5493 5492 5489 5487 5485 5483 5480
5498 5499 5500 5501 5502 5503 5504 5505 5506 5506 5506 5506 5506 5506 5506 5505 5505 5504 5504 5502 5501 5500 5499 5498 5498 5497 5496 5495 5494 5493 5492 5490 5488 5487 5486 5484 5483 5481 5479 5477 5475 5473 5470